Regional Weather Roundup
Issued by NWS

Home | Current Version | Previous Version | Text Only | Print | Product List | Glossary On
Versions: 1 2 3 4 5 6 7 8 9 10 11 12 13 14 15 16 17 18 19 20 21 22 23 24 25 26 27 28 29 30 31 32 33 34 35 36 37 38 39 40 41 42 43 44 45 46 47 48 49 50
000
ASUS44 KFWD 251803
RWRTX
NORTH TEXAS HOURLY WEATHER ROUNDUP
NATIONAL WEATHER SERVICE FORT WORTH TX
1200 PM CST SUN FEB 25 2018

NOTE: "FAIR" INDICATES FEW OR NO CLOUDS BELOW 12,000 FEET WITH NO
SIGNIFICANT WEATHER AND/OR OBSTRUCTIONS TO VISIBILITY.

TXZ118-119-251900-
DALLAS/FORT WORTH METROPLEX

CITY           SKY/WX    TMP DP  RH WIND       PRES   REMARKS
DFW AIRPORT    FAIR      63  46  54 SE8       30.03F
6HR MIN TEMP:  41; 6HR MAX TEMP:  63;

DALLAS LOVE    FAIR      60  46  59 S14       30.05F
6HR MIN TEMP:  42; 6HR MAX TEMP:  61;

FTW MEACHAM    FAIR      63  43  48 SE12      30.04F
6HR MIN TEMP:  40; 6HR MAX TEMP:  63;

DAL-EXECUTIVE  FAIR      61  49  64 SE10      30.03F
6HR MIN TEMP:  40; 6HR MAX TEMP:  61;

FTW-ALLIANCE   FAIR      64  40  41 SE9       30.04F
6HR MIN TEMP:  33; 6HR MAX TEMP:  65;

FTW-NAS-JRB    FAIR      63  41  44 SE9       30.05F
6HR MIN TEMP:  39; 6HR MAX TEMP:  64;

FTW-SPINKS     MOSUNNY   63  45  51 E12       30.06F
ARLINGTON      FAIR      60  46  59 SE12      30.05F
6HR MIN TEMP:  36; 6HR MAX TEMP:  60;

GRAND PRAIRIE  SUNNY     61  45  55 SE5       30.07F
ADDISON          N/A     61  43  51 E10       30.05F
MESQUITE       SUNNY     61  46  59 SE10G17   30.05F
LANCASTER      FAIR      59  48  67 SE8       30.06F
6HR MIN TEMP:  40; 6HR MAX TEMP:  59;

$$

TXZ091>094-102>105-117-120-121-131>134-251900-
NORTH CENTRAL TEXAS

CITY           SKY/WX    TMP DP  RH WIND       PRES   REMARKS
SHRMAN/DENISON FAIR      61  43  51 S14       30.07F
6HR MIN TEMP:  40; 6HR MAX TEMP:  61;

GAINESVILLE    FAIR      58  40  52 S13       30.08F
6HR MIN TEMP:  33; 6HR MAX TEMP:  58;

BOWIE          FAIR      58  43  56 S8G16     30.05F
6HR MIN TEMP:  34; 6HR MAX TEMP:  58;

BRIDGEPORT     FAIR      59  43  56 SE14      30.07F
6HR MIN TEMP:  32; 6HR MAX TEMP:  59;

DECATUR        FAIR      61  39  43 SE13G18   30.04F
6HR MIN TEMP:  38; 6HR MAX TEMP:  61;

DENTON         FAIR      60  40  47 SE13      30.05F
6HR MIN TEMP:  34; 6HR MAX TEMP:  60;

MCKINNEY       FAIR      58  48  69 S14       30.05F
6HR MIN TEMP:  37; 6HR MAX TEMP:  58;

BONHAM         FAIR      56  45  67 SE13      30.07F
6HR MIN TEMP:  36; 6HR MAX TEMP:  57;

GREENVILLE     FAIR      63  50  63 SE9       30.05F
ROCKWALL       FAIR      61  47  60 SE8G16    30.05F
6HR MIN TEMP:  42; 6HR MAX TEMP:  61;

TERRELL        FAIR      62  46  55 SE12G23   30.05F
6HR MIN TEMP:  44; 6HR MAX TEMP:  62;

CLEBURNE       FAIR      61  46  59 SE12      30.06S
GRANBURY       FAIR      62  45  53 SE8       30.06F
6HR MIN TEMP:  36; 6HR MAX TEMP:  62;

$$

TXZ083>090-098>101-113>116-127>130-139>142-154-155-251900-
WESTERN NORTH TEXAS

CITY           SKY/WX    TMP DP  RH WIND       PRES   REMARKS
WICHITA FALLS  FAIR      59  40  49 S9        30.04F
6HR MIN TEMP:  34; 6HR MAX TEMP:  59;

WF-KICKAPOO    FAIR      57  42  56 S8G16     30.07F
6HR MIN TEMP:  33; 6HR MAX TEMP:  57;

VERNON         FAIR      58  28  31 S8        30.03F
6HR MIN TEMP:  32; 6HR MAX TEMP:  69;

ABILENE        PTSUNNY   63  20  19 S13       30.03F
6HR MIN TEMP:  32; 6HR MAX TEMP:  64;

ABILENE-DYESS  PTSUNNY   65  25  22 S12       30.02F
6HR MIN TEMP:  30; 6HR MAX TEMP:  65;

GRAHAM           N/A     61  43  52 SE14      30.03F
6HR MIN TEMP:  32; 6HR MAX TEMP:  61;

BRECKENRIDGE   FAIR      62  39  43 SE12      30.03F
6HR MIN TEMP:  32; 6HR MAX TEMP:  63;

CISCO          FAIR      61  39  44 SE10      30.05F
EASTLAND       FAIR      60  41  48 S13       30.04F
6HR MIN TEMP:  26; 6HR MAX TEMP:  61;

RANGER         FAIR      61  39  44 S8        30.04F
6HR MIN TEMP:  32; 6HR MAX TEMP:  61;

MINERAL WELLS  FAIR      60  43  53 S10       30.03F
6HR MIN TEMP:  33; 6HR MAX TEMP:  61;

STEPHENVILLE   FAIR      63  42  46 SE9       30.07F
6HR MIN TEMP:  37; 6HR MAX TEMP:  63;

COMANCHE       PTSUNNY   60  47  61 S6        30.05F
6HR MIN TEMP:  38; 6HR MAX TEMP:  60;

COLEMAN        FAIR      63  38  40 SE8       30.04F
6HR MIN TEMP:  37; 6HR MAX TEMP:  63;

$$

TXZ143>147-156>162-174-175-251900-
CENTRAL TEXAS

CITY           SKY/WX    TMP DP  RH WIND       PRES   REMARKS
WACO           CLOUDY    59  47  64 SE6       30.07R
6HR MIN TEMP:  45; 6HR MAX TEMP:  60;

WACO-TSTC      MOSUNNY   59  48  67 SE7       30.07R
WACO-MCGREGOR  PTSUNNY   58  48  69 S6        30.07S
6HR MIN TEMP:  46; 6HR MAX TEMP:  58; 6HR PCP: TRACE;

HILLSBORO      FAIR      60  52  74 SE10      30.07R
6HR MIN TEMP:  47; 6HR MAX TEMP:  61; 6HR PCP:  0.01;

CORSICANA      PTSUNNY   57  47  69 SE14      30.07S
6HR MIN TEMP:  50; 6HR MAX TEMP:  59; 6HR PCP: TRACE;

MEXIA          CLOUDY    55  47  72 S7        30.06R
6HR MIN TEMP:  50; 6HR MAX TEMP:  56; 6HR PCP:  0.01;

HEARNE         CLOUDY    58  48  68 E6G17     30.04F
6HR MIN TEMP:  57; 6HR MAX TEMP:  61;

CAMERON        RAIN      55  53  92 NE5       30.04S
6HR MIN TEMP:  54; 6HR MAX TEMP:  57; 6HR PCP:  0.70;

TEMPLE         FAIR      58  50  75 E14       30.06F
6HR MIN TEMP:  50; 6HR MAX TEMP:  58; 6HR PCP:  0.01;

KILLEEN        CLOUDY    58  43  58 E7        30.04F
6HR MIN TEMP:  48; 6HR MAX TEMP:  58; 6HR PCP:  0.01;

KILLEEN-SKYLRK CLOUDY    58  48  69 SE6       30.06F
6HR MIN TEMP:  49; 6HR MAX TEMP:  58; 6HR PCP:  0.01;

GATESVILLE     FAIR      59  48  67 SE7       30.07F
HAMILTON       PTSUNNY   63  46  54 SE10      30.06F
6HR MIN TEMP:  45; 6HR MAX TEMP:  64;

LAMPASAS       FAIR      61  46  58 S3        30.04F
6HR MIN TEMP:  47; 6HR MAX TEMP:  62;

$$

TXZ095>097-106>112-122>126-135>138-148>153-164>167-251900-
EAST TEXAS

CITY           SKY/WX    TMP DP  RH WIND       PRES   REMARKS
PARIS          FAIR      54  47  77 E9        30.10S
6HR MIN TEMP:  38; 6HR MAX TEMP:  55;

SULPHUR SPRNGS FAIR      59  50  71 SE10G16   30.09F
6HR MIN TEMP:  43; 6HR MAX TEMP:  59;

MOUNT PLEASANT FAIR      56  50  80 E8        30.10F
6HR MIN TEMP:  46; 6HR MAX TEMP:  56;

GILMER         CLOUDY    57  50  76 SE12G21   30.06F
6HR MIN TEMP:  48; 6HR MAX TEMP:  57;

MINEOLA        FAIR      57  52  82 E5        30.06F
TYLER          FAIR      58  49  72 SE14      30.05F
6HR MIN TEMP:  51; 6HR MAX TEMP:  59;

LONGVIEW       PTSUNNY   55  49  80 SE14      30.06F
6HR MIN TEMP:  54; 6HR MAX TEMP:  58;

MARSHALL       CLOUDY    53  47  79 S12       30.12F
6HR MIN TEMP:  53; 6HR MAX TEMP:  55;

ATHENS         PTSUNNY   54  43  66 SE9       30.04S
PALESTINE      PTSUNNY   55  50  86 E6        30.09R
JACKSONVILLE   PTSUNNY   52  49  92 E10G17    30.06F
HENDERSON      PTSUNNY   53  47  80 E13G21    30.05F
6HR MIN TEMP:  51; 6HR MAX TEMP:  56;

CENTER         RAIN      49  47  93 E7        30.12F
6HR MIN TEMP:  49; 6HR MAX TEMP:  55; 6HR PCP:  0.44;

NACOGDOCHES    RAIN      49  47  93 E7        30.08F
6HR MIN TEMP:  49; 6HR MAX TEMP:  57; 6HR PCP:  0.36;

LUFKIN         LGT RAIN  52  50  93 N7        30.07F
6HR MIN TEMP:  51; 6HR MAX TEMP:  57; 6HR PCP:  0.48;

$$

SUPPLEMENTAL OBSERVATIONS (NWS FORT WORTH AREA)

CITY           SKY/WX    TMP DP  RH WIND       PRES   REMARKS
$$

SUPPLEMENTAL OBSERVATIONS (NWS NORMAN AREA)

CITY           SKY/WX    TMP DP  RH WIND       PRES   REMARKS
GOODLETT         N/A     58  23  26 SE5       30.01F
ODELL            N/A     57  34  41 S9        30.04F
CROWELL



USA.gov is the U.S. government's official web portal to all federal, state and local government web resources and services.